DW5963 Weather Reports


Display with metric or nautical units.
time (UTC)temp
F
wind
direction
speed
MPH
gust
MPH
rain 1hr
in
rain 24hr
in
rain mn
in
humidity
%
barometer
mb
20260504023507 68 360 14.0 0.0 0.00 0.00 0.00 33 999.7
20260504023007 69 360 15.0 0.0 0.00 0.00 0.00 32 999.7
20260504022507 69 360 15.0 0.0 0.00 0.00 0.00 32 999.7
20260504022006 69 360 15.0 0.0 0.00 0.00 0.00 32 999.7
20260504021506 69 360 16.0 0.0 0.00 0.00 0.00 32 999.6
20260504021006 70 360 17.0 0.0 0.00 0.00 0.00 31 999.6
20260504020505 70 360 17.0 0.0 0.00 0.00 0.00 31 999.5
20260504020009 70 360 16.0 0.0 0.00 0.00 0.00 31 999.5
20260504015007 71 360 17.0 0.0 0.00 0.00 0.00 31 999.5
20260504014505 71 360 17.0 0.0 0.00 0.00 0.00 30 999.5
20260504014009 72 360 18.0 0.0 0.00 0.00 0.00 29 999.5
20260504013508 72 360 18.0 0.0 0.00 0.00 0.00 28 999.5
20260504013005 72 360 18.0 0.0 0.00 0.00 0.00 26 999.5
20260504012508 73 360 18.0 0.0 0.00 0.00 0.00 25 999.4
20260504012005 73 360 17.0 0.0 0.00 0.00 0.00 23 999.5
20260504011505 73 360 17.0 0.0 0.00 0.00 0.00 22 999.5
20260504011004 74 360 17.0 0.0 0.00 0.00 0.00 21 999.5
20260504010506 74 360 14.0 0.0 0.00 0.00 0.00 23 999.6
20260504010004 74 360 14.0 0.0 0.00 0.00 0.00 23 999.5
20260504005003 74 360 16.0 0.0 0.00 0.00 0.00 23 999.6
20260504004505 74 360 18.0 0.0 0.00 0.00 0.00 23 999.7
20260504004001 75 360 19.0 0.0 0.00 0.00 0.00 22 999.7
20260504003501 75 360 20.0 0.0 0.00 0.00 0.00 21 999.7
20260504003001 75 360 20.0 0.0 0.00 0.00 0.00 21 999.8
20260504002600 76 360 20.0 0.0 0.00 0.00 0.00 21 999.9
20260504002059 76 360 20.0 0.0 0.00 0.00 0.00 20 1000.0
20260504001600 76 360 20.0 0.0 0.00 0.00 0.00 20 1000.1
20260504001059 76 360 21.0 0.0 0.00 0.00 0.00 20 1000.0
20260504000558 76 360 22.0 0.0 0.00 0.00 0.00 21 1000.1
20260504000107 76 360 21.0 0.0 0.00 0.00 0.00 21 1000.1
20260503235559 77 360 20.0 0.0 0.00 0.00 0.00 21 1000.0
20260503235058 76 360 18.0 0.0 0.00 0.00 0.00 23 1000.2
20260503234556 76 360 15.0 0.0 0.00 0.00 0.00 24 1000.3
20260503234055 76 360 15.0 0.0 0.00 0.00 0.00 25 1000.5
20260503233556 75 360 16.0 0.0 0.00 0.00 0.00 25 1000.6
20260503233054 76 360 19.0 0.0 0.00 0.00 0.00 24 1000.8
20260503232054 76 360 15.0 0.0 0.00 0.00 0.00 24 1000.9
20260503231554 76 360 15.0 0.0 0.00 0.00 0.00 24 1001.2
20260503231056 76 360 15.0 0.0 0.00 0.00 0.00 24 1001.2
20260503230555 76 360 16.0 0.0 0.00 0.00 0.00 24 1001.4
20260503230052 76 360 16.0 0.0 0.00 0.00 0.00 22 1001.5
20260503225551 76 360 17.0 0.0 0.00 0.00 0.00 22 1001.6
20260503225049 76 360 19.0 0.0 0.00 0.00 0.00 22 1001.8
20260503224557 76 360 18.0 0.0 0.00 0.00 0.00 22 1001.9
20260503224048 76 360 17.0 0.0 0.00 0.00 0.00 21 1002.0
20260503223547 76 360 17.0 0.0 0.00 0.00 0.00 22 1002.1
20260503223047 76 360 16.0 0.0 0.00 0.00 0.00 22 1002.2
20260503222047 76 360 18.0 0.0 0.00 0.00 0.00 21 1002.5
20260503221557 76 360 20.0 0.0 0.00 0.00 0.00 20 1002.5
20260503221049 76 360 19.0 0.0 0.00 0.00 0.00 20 1002.5
20260503220544 76 360 18.0 0.0 0.00 0.00 0.00 24 1002.8
20260503220043 76 360 17.0 0.0 0.00 0.00 0.00 24 1002.7
20260503215541 75 360 17.0 0.0 0.00 0.00 0.00 25 1002.7
20260503215041 75 360 19.0 0.0 0.00 0.00 0.00 24 1003.0
20260503214542 75 360 18.0 0.0 0.00 0.00 0.00 25 1003.1
20260503214039 75 360 17.0 0.0 0.00 0.00 0.00 25 1003.4
20260503213539 75 360 17.0 0.0 0.00 0.00 0.00 25 1003.3
20260503213044 76 360 18.0 0.0 0.00 0.00 0.00 25 1003.6
20260503212039 76 360 18.0 0.0 0.00 0.00 0.00 24 1003.8
20260503211537 75 360 19.0 0.0 0.00 0.00 0.00 25 1004.0
20260503211036 76 360 19.0 0.0 0.00 0.00 0.00 24 1004.0
20260503210536 75 360 17.0 0.0 0.00 0.00 0.00 23 1004.0
20260503210036 74 360 17.0 0.0 0.00 0.00 0.00 22 1004.2
20260503205536 75 360 16.0 0.0 0.00 0.00 0.00 24 1004.3
20260503205035 74 360 16.0 0.0 0.00 0.00 0.00 25 1004.5
20260503204533 74 360 17.0 0.0 0.00 0.00 0.00 25 1004.7
20260503204035 74 360 17.0 0.0 0.00 0.00 0.00 25 1004.5
20260503203534 74 360 17.0 0.0 0.00 0.00 0.00 25 1004.7
20260503203037 74 360 16.0 0.0 0.00 0.00 0.00 25 1004.7
20260503202033 75 360 18.0 0.0 0.00 0.00 0.00 24 1004.9
20260503201532 75 360 17.0 0.0 0.00 0.00 0.00 25 1005.0
20260503201032 75 360 16.0 0.0 0.00 0.00 0.00 27 1004.9
20260503200533 76 360 16.0 0.0 0.00 0.00 0.00 26 1005.1
20260503200030 75 360 17.0 0.0 0.00 0.00 0.00 26 1005.4
20260503195530 74 360 16.0 0.0 0.00 0.00 0.00 25 1005.3
20260503195028 74 360 17.0 0.0 0.00 0.00 0.00 27 1005.6
20260503194527 75 360 16.0 0.0 0.00 0.00 0.00 25 1005.8
20260503194027 74 360 15.0 0.0 0.00 0.00 0.00 28 1005.9
20260503193525 74 360 15.0 0.0 0.00 0.00 0.00 27 1006.0
20260503193040 74 360 17.0 0.0 0.00 0.00 0.00 28 1006.1
20260503192030 73 360 15.0 0.0 0.00 0.00 0.00 27 1006.4
20260503191557 73 360 16.0 0.0 0.00 0.00 0.00 29 1006.4
20260503191029 74 360 18.0 0.0 0.00 0.00 0.00 28 1006.6
20260503190527 74 360 15.0 0.0 0.00 0.00 0.00 28 1006.7
20260503190027 74 360 15.0 0.0 0.00 0.00 0.00 28 1006.7
20260503185525 74 360 16.0 0.0 0.00 0.00 0.00 28 1006.9
20260503185021 73 360 17.0 0.0 0.00 0.00 0.00 29 1007.0
20260503184521 74 360 17.0 0.0 0.00 0.00 0.00 28 1007.1
20260503184020 73 360 16.0 0.0 0.00 0.00 0.00 29 1007.3
20260503183522 73 360 18.0 0.0 0.00 0.00 0.00 28 1007.6
20260503183018 73 360 18.0 0.0 0.00 0.00 0.00 28 1007.7
20260503182016 73 360 16.0 0.0 0.00 0.00 0.00 28 1007.9
20260503181516 73 360 18.0 0.0 0.00 0.00 0.00 30 1008.1
20260503181016 73 360 18.0 0.0 0.00 0.00 0.00 27 1008.2
20260503180515 73 360 17.0 0.0 0.00 0.00 0.00 29 1008.3
20260503180014 73 360 16.0 0.0 0.00 0.00 0.00 28 1008.3
20260503175513 72 360 16.0 0.0 0.00 0.00 0.00 29 1008.3
20260503175016 72 360 18.0 0.0 0.00 0.00 0.00 29 1008.5
20260503174512 72 360 17.0 0.0 0.00 0.00 0.00 29 1008.6
20260503174016 72 360 15.0 0.0 0.00 0.00 0.00 31 1008.6
20260503173511 71 360 15.0 0.0 0.00 0.00 0.00 30 1008.8
20260503173010 71 360 16.0 0.0 0.00 0.00 0.00 30 1008.8
20260503172013 71 360 16.0 0.0 0.00 0.00 0.00 31 1009.0
20260503171509 71 360 17.0 0.0 0.00 0.00 0.00 30 1009.0
20260503171008 71 360 15.0 0.0 0.00 0.00 0.00 28 1009.2
20260503170507 71 360 13.0 0.0 0.00 0.00 0.00 31 1009.3
20260503160108 68 360 13.0 0.0 0.00 0.00 0.00 34 1010.5
20260503150551 65 360 13.0 0.0 0.00 0.00 0.00 34 1011.4
20260503131022 44 360 1.0 0.0 0.00 0.00 0.00 65 1012.8
20260503130521 43 360 1.0 0.0 0.00 0.00 0.00 67 1012.8
20260503110504 29 360 0.0 0.0 0.00 0.00 0.00 81 1013.5
20260503081554 29 360 1.0 0.0 0.00 0.00 0.00 72 1014.1
20260503081052 30 360 1.0 0.0 0.00 0.00 0.00 72 1014.1
20260503080553 30 360 1.0 0.0 0.00 0.00 0.00 73 1014.1
20260503072551 30 360 1.0 0.0 0.00 0.00 0.00 73 1014.3
20260503072051 30 360 1.0 0.0 0.00 0.00 0.00 73 1014.2
20260503071605 30 360 2.0 0.0 0.00 0.00 0.00 71 1014.3
20260503071048 30 360 2.0 0.0 0.00 0.00 0.00 71 1014.3
20260503070548 31 360 2.0 0.0 0.00 0.00 0.00 71 1014.4
20260503055039 34 360 1.0 0.0 0.00 0.00 0.00 67 1014.2
20260503054558 33 360 1.0 0.0 0.00 0.00 0.00 68 1014.1
20260503054040 33 360 2.0 0.0 0.00 0.00 0.00 66 1014.2
20260503053538 34 360 1.0 0.0 0.00 0.00 0.00 64 1014.1
20260503053038 35 360 1.0 0.0 0.00 0.00 0.00 63 1014.1
20260503052539 36 360 1.0 0.0 0.00 0.00 0.00 65 1014.1
20260503052038 36 360 1.0 0.0 0.00 0.00 0.00 65 1014.2
20260503051538 35 360 1.0 0.0 0.00 0.00 0.00 66 1014.2
20260503051037 35 360 1.0 0.0 0.00 0.00 0.00 62 1014.2
20260503050535 35 360 1.0 0.0 0.00 0.00 0.00 60 1014.2
20260503050035 36 360 2.0 0.0 0.00 0.00 0.00 61 1014.2
20260503045536 37 360 2.0 0.0 0.00 0.00 0.00 63 1014.2
20260503045033 37 360 1.0 0.0 0.00 0.00 0.00 64 1014.2
20260503044539 36 360 1.0 0.0 0.00 0.00 0.00 62 1014.3
20260503044031 37 360 1.0 0.0 0.00 0.00 0.00 61 1014.2
20260503043531 38 360 1.0 0.0 0.00 0.00 0.00 59 1014.3
20260503043041 39 360 1.0 0.0 0.00 0.00 0.00 59 1014.2
20260503042531 40 360 2.0 0.0 0.00 0.00 0.00 58 1014.2
20260503042032 40 360 2.0 0.0 0.00 0.00 0.00 58 1014.2
20260503041532 40 360 2.0 0.0 0.00 0.00 0.00 58 1014.2
20260503041031 40 360 1.0 0.0 0.00 0.00 0.00 57 1014.3
20260503040533 40 360 0.0 0.0 0.00 0.00 0.00 57 1014.3
20260503040035 40 360 1.0 0.0 0.00 0.00 0.00 56 1014.3
20260503035533 41 360 1.0 0.0 0.00 0.00 0.00 56 1014.2
20260503035031 41 360 1.0 0.0 0.00 0.00 0.00 56 1014.3
20260503034531 40 360 2.0 0.0 0.00 0.00 0.00 56 1014.2
20260503034031 40 360 1.0 0.0 0.00 0.00 0.00 55 1014.2
20260503033533 41 360 2.0 0.0 0.00 0.00 0.00 55 1014.3
20260503033031 41 360 2.0 0.0 0.00 0.00 0.00 54 1014.3
20260503032531 42 360 1.0 0.0 0.00 0.00 0.00 53 1014.1
20260503032031 42 360 1.0 0.0 0.00 0.00 0.00 53 1014.1
20260503031531 42 360 0.0 0.0 0.00 0.00 0.00 52 1014.1
20260503031029 43 360 0.0 0.0 0.00 0.00 0.00 51 1014.1
20260503030531 43 360 0.0 0.0 0.00 0.00 0.00 50 1014.1
20260503030035 44 360 1.0 0.0 0.00 0.00 0.00 49 1014.1
20260503025530 44 360 1.0 0.0 0.00 0.00 0.00 47 1014.1
20260503025030 45 360 1.0 0.0 0.00 0.00 0.00 46 1014.0
20260503024533 46 360 2.0 0.0 0.00 0.00 0.00 45 1013.9
20260503024029 48 360 2.0 0.0 0.00 0.00 0.00 44 1013.9